• In Belarus
  • List of Countries
  • For 7 days
  • Water Temperature
  • Satellite Maps
  • Weather Map
  • Weather Widgets
  • user-avatar
    Login

    Hourly Weather Rangpur

    Today, 11 December, Tuesday

    Time Temperature Precipitation Wind Pressure Humidity
    00:00 +19°C° 0 mm 2 mps 757 mmHg 57%
    01:00 +19°C° 0 mm 2 mps 757 mmHg 57%
    02:00 +19°C° 0 mm 2 mps 757 mmHg 57%
    03:00 +18°C° 0 mm 2 mps 757 mmHg 57%
    04:00 +18°C° 0 mm 2 mps 757 mmHg 56%
    05:00 +18°C° 0 mm 2 mps 757 mmHg 56%
    06:00 +17°C° 0 mm 2 mps 757 mmHg 62%
    07:00 +18°C° 0 mm 2 mps 757 mmHg 58%
    08:00 +20°C° 0 mm 3 mps 758 mmHg 54%
    09:00 +21°C° 0 mm 3 mps 758 mmHg 51%
    10:00 +24°C° 0 mm 3 mps 758 mmHg 47%
    11:00 +26°C° 0 mm 3 mps 757 mmHg 43%
    12:00 +27°C° 0 mm 3 mps 757 mmHg 40%
    13:00 +28°C° 0 mm 3 mps 756 mmHg 39%
    14:00 +28°C° 0 mm 2 mps 756 mmHg 38%
    15:00 +28°C° 0 mm 2 mps 755 mmHg 38%
    16:00 +27°C° 0 mm 2 mps 755 mmHg 42%
    17:00 +26°C° 0 mm 1 mps 755 mmHg 46%
    18:00 +24°C° 0 mm 1 mps 755 mmHg 50%
    19:00 +24°C° 0 mm 1 mps 756 mmHg 52%
    20:00 +23°C° 0 mm 2 mps 756 mmHg 55%
    21:00 +23°C° 0 mm 2 mps 757 mmHg 57%
    22:00 +21°C° 0 mm 2 mps 757 mmHg 58%
    23:00 +21°C° 0 mm 2 mps 757 mmHg 59%

    Tomorrow, 12 December, Wednesday

    Time Temperature Precipitation Wind Pressure Humidity
    00:00 +20°C° 0 mm 2 mps 758 mmHg 59%
    01:00 +20°C° 0 mm 2 mps 757 mmHg 58%
    02:00 +19°C° 0 mm 2 mps 757 mmHg 57%
    03:00 +19°C° 0 mm 2 mps 757 mmHg 56%
    04:00 +18°C° 0 mm 2 mps 757 mmHg 55%
    05:00 +18°C° 0 mm 2 mps 758 mmHg 54%
    06:00 +18°C° 0 mm 2 mps 758 mmHg 54%
    07:00 +19°C° 0 mm 3 mps 758 mmHg 51%
    08:00 +20°C° 0 mm 3 mps 759 mmHg 49%
    09:00 +21°C° 0 mm 4 mps 759 mmHg 47%
    10:00 +23°C° 0 mm 4 mps 759 mmHg 43%
    11:00 +26°C° 0 mm 4 mps 759 mmHg 39%
    12:00 +27°C° 0 mm 4 mps 759 mmHg 35%
    13:00 +27°C° 0 mm 4 mps 758 mmHg 35%
    14:00 +28°C° 0 mm 3 mps 757 mmHg 34%
    15:00 +28°C° 0 mm 3 mps 757 mmHg 33%
    16:00 +27°C° 0 mm 3 mps 757 mmHg 37%
    17:00 +25°C° 0 mm 2 mps 757 mmHg 41%
    18:00 +24°C° 0 mm 2 mps 757 mmHg 45%
    19:00 +23°C° 0 mm 2 mps 758 mmHg 47%
    20:00 +21°C° 0 mm 2 mps 758 mmHg 50%
    21:00 +21°C° 0 mm 2 mps 759 mmHg 52%
    22:00 +20°C° 0 mm 2 mps 759 mmHg 52%
    23:00 +20°C° 0 mm 2 mps 759 mmHg 53%

    Day after tomorrow, 13 December, Thursday

    Time Temperature Precipitation Wind Pressure Humidity
    00:00 +19°C° 0 mm 2 mps 759 mmHg 53%
    01:00 +19°C° 0 mm 2 mps 759 mmHg 52%
    02:00 +18°C° 0 mm 2 mps 759 mmHg 51%
    03:00 +18°C° 0 mm 3 mps 758 mmHg 51%
    04:00 +18°C° 0 mm 3 mps 759 mmHg 50%
    05:00 +17°C° 0 mm 3 mps 759 mmHg 50%
    06:00 +17°C° 0 mm 3 mps 759 mmHg 50%
    07:00 +18°C° 0 mm 3 mps 759 mmHg 47%
    08:00 +20°C° 0 mm 3 mps 760 mmHg 45%
    09:00 +21°C° 0 mm 4 mps 761 mmHg 42%
    10:00 +23°C° 0 mm 4 mps 760 mmHg 38%
    11:00 +25°C° 0 mm 4 mps 760 mmHg 34%
    12:00 +27°C° 0 mm 4 mps 760 mmHg 31%
    13:00 +27°C° 0 mm 4 mps 759 mmHg 30%
    14:00 +28°C° 0 mm 3 mps 758 mmHg 30%
    15:00 +28°C° 0 mm 3 mps 757 mmHg 29%
    16:00 +26°C° 0 mm 3 mps 757 mmHg 32%
    17:00 +25°C° 0 mm 2 mps 758 mmHg 36%
    18:00 +23°C° 0 mm 2 mps 758 mmHg 39%
    19:00 +23°C° 0 mm 2 mps 758 mmHg 41%
    20:00 +21°C° 0 mm 2 mps 759 mmHg 43%
    21:00 +20°C° 0 mm 2 mps 760 mmHg 45%
    22:00 +20°C° 0 mm 2 mps 760 mmHg 45%
    23:00 +19°C° 0 mm 2 mps 760 mmHg 46%

    14 December, Friday

    Time Temperature Precipitation Wind Pressure Humidity
    00:00 +19°C° 0 mm 2 mps 760 mmHg 46%
    01:00 +18°C° 0 mm 2 mps 760 mmHg 46%
    02:00 +18°C° 0 mm 2 mps 759 mmHg 45%
    03:00 +18°C° 0 mm 2 mps 759 mmHg 45%
    04:00 +17°C° 0 mm 2 mps 759 mmHg 45%
    05:00 +17°C° 0 mm 2 mps 759 mmHg 45%
    06:00 +17°C° 0 mm 2 mps 759 mmHg 45%
    07:00 +18°C° 0 mm 2 mps 760 mmHg 42%
    08:00 +19°C° 0 mm 3 mps 761 mmHg 40%
    09:00 +20°C° 0 mm 3 mps 761 mmHg 37%
    10:00 +22°C° 0 mm 3 mps 761 mmHg 34%
    11:00 +25°C° 0 mm 3 mps 761 mmHg 31%
    12:00 +27°C° 0 mm 3 mps 760 mmHg 28%
    13:00 +27°C° 0 mm 3 mps 760 mmHg 27%
    14:00 +27°C° 0 mm 3 mps 759 mmHg 26%
    15:00 +28°C° 0 mm 2 mps 758 mmHg 25%
    16:00 +26°C° 0 mm 2 mps 759 mmHg 28%
    17:00 +25°C° 0 mm 2 mps 759 mmHg 31%
    18:00 +23°C° 0 mm 1 mps 759 mmHg 33%
    19:00 +23°C° 0 mm 1 mps 760 mmHg 35%
    20:00 +22°C° 0 mm 1 mps 761 mmHg 37%
    21:00 +21°C° 0 mm 1 mps 761 mmHg 38%
    22:00 +21°C° 0 mm 1 mps 761 mmHg 39%
    23:00 +19°C° 0 mm 2 mps 761 mmHg 40%

    15 December, Saturday

    Time Temperature Precipitation Wind Pressure Humidity
    00:00 +19°C° 0 mm 2 mps 761 mmHg 40%
    01:00 +18°C° 0 mm 2 mps 760 mmHg 40%
    02:00 +18°C° 0 mm 2 mps 760 mmHg 40%
    03:00 +17°C° 0 mm 2 mps 760 mmHg 41%
    04:00 +17°C° 0 mm 2 mps 760 mmHg 41%
    05:00 +17°C° 0 mm 2 mps 760 mmHg 41%
    06:00 +16°C° 0 mm 2 mps 760 mmHg 41%
    07:00 +18°C° 0 mm 2 mps 760 mmHg 40%
    08:00 +19°C° 0 mm 3 mps 761 mmHg 38%
    09:00 +20°C° 0 mm 3 mps 762 mmHg 36%
    10:00 +22°C° 0 mm 3 mps 761 mmHg 33%
    11:00 +25°C° 0 mm 4 mps 761 mmHg 30%
    12:00 +27°C° 0 mm 4 mps 761 mmHg 27%
    13:00 +27°C° 0 mm 4 mps 760 mmHg 27%
    14:00 +27°C° 0 mm 3 mps 759 mmHg 26%
    15:00 +28°C° 0 mm 3 mps 759 mmHg 26%
    16:00 +26°C° 0 mm 2 mps 759 mmHg 29%
    17:00 +25°C° 0 mm 2 mps 760 mmHg 32%
    18:00 +24°C° 0 mm 2 mps 760 mmHg 36%
    19:00 +23°C° 0 mm 2 mps 760 mmHg 37%
    20:00 +21°C° 0 mm 2 mps 761 mmHg 39%
    21:00 +21°C° 0 mm 2 mps 762 mmHg 41%
    22:00 +20°C° 0 mm 2 mps 762 mmHg 41%
    23:00 +20°C° 0 mm 2 mps 761 mmHg 42%

    16 December, Sunday

    Time Temperature Precipitation Wind Pressure Humidity
    00:00 +19°C° 0 mm 2 mps 761 mmHg 42%
    01:00 +19°C° 0 mm 2 mps 761 mmHg 42%
    02:00 +18°C° 0 mm 2 mps 761 mmHg 41%
    03:00 +18°C° 0 mm 2 mps 761 mmHg 41%
    04:00 +18°C° 0 mm 3 mps 761 mmHg 40%
    05:00 +18°C° 0 mm 3 mps 761 mmHg 39%
    06:00 +18°C° 0 mm 3 mps 761 mmHg 38%
    07:00 +19°C° 0 mm 3 mps 761 mmHg 38%
    08:00 +20°C° 0 mm 3 mps 761 mmHg 38%
    09:00 +20°C° 0 mm 3 mps 762 mmHg 38%
    10:00 +22°C° 0 mm 3 mps 761 mmHg 36%
    11:00 +24°C° 0 mm 3 mps 761 mmHg 35%
    12:00 +25°C° 0 mm 3 mps 761 mmHg 34%
    13:00 +25°C° 0 mm 3 mps 760 mmHg 32%
    14:00 +26°C° 0 mm 3 mps 760 mmHg 31%
    15:00 +27°C° 0 mm 3 mps 759 mmHg 29%
    16:00 +26°C° 0 mm 2 mps 759 mmHg 32%
    17:00 +24°C° 0 mm 2 mps 759 mmHg 35%
    18:00 +23°C° 0 mm 2 mps 759 mmHg 38%
    19:00 +23°C° 0 mm 2 mps 760 mmHg 39%
    20:00 +21°C° 0 mm 2 mps 760 mmHg 40%
    21:00 +21°C° 0 mm 2 mps 761 mmHg 40%
    22:00 +21°C° 0 mm 2 mps 761 mmHg 39%
    23:00 +21°C° 0 mm 2 mps 760 mmHg 38%
    Show more